Satellite-Ground Cal/Val Region Overpasses Predictions

Prediction of Satellite NPP Overpassing Cal/Val Region: PacNW

Region Location: (Latitude: 10.00, Longitude: 139.50) to (Latitude: 22.70, Longitude: 165.60).

Table of predicted overpasses for the next 14.0 days since TLE Epoch: 4/30/2022
Interval Starting Time Starting Location Ending Time Ending Location
1 04/30/2022 15:23:52 ( 22.65, 153.99) 04/30/2022 15:27:27 ( 10.03, 150.99)
2 05/01/2022 02:32:57 ( 10.04, 161.52) 05/01/2022 02:36:32 ( 22.67, 158.52)
3 05/01/2022 15:04:50 ( 22.65, 158.75) 05/01/2022 15:08:25 ( 10.03, 155.75)
4 05/02/2022 02:14:45 ( 13.04, 165.59) 05/02/2022 02:17:29 ( 22.67, 163.28)
5 05/02/2022 03:55:24 ( 10.06, 140.90) 05/02/2022 03:57:06 ( 16.05, 139.51)
6 05/02/2022 14:45:47 ( 22.64, 163.51) 05/02/2022 14:49:22 ( 10.02, 160.51)
7 05/03/2022 03:36:21 ( 10.00, 145.68) 05/03/2022 03:39:57 ( 22.68, 142.66)
8 05/03/2022 14:29:56 ( 11.43, 165.59) 05/03/2022 14:30:20 ( 10.02, 165.27)
9 05/03/2022 16:08:14 ( 22.69, 142.91) 05/03/2022 16:11:50 ( 10.01, 139.89)
10 05/04/2022 03:17:18 ( 10.01, 150.43) 05/04/2022 03:20:54 ( 22.69, 147.42)
11 05/04/2022 15:49:11 ( 22.68, 147.67) 05/04/2022 15:52:47 ( 10.00, 144.65)
12 05/05/2022 02:58:16 ( 10.02, 155.19) 05/05/2022 03:01:52 ( 22.70, 152.18)
13 05/05/2022 15:30:09 ( 22.67, 152.43) 05/05/2022 15:33:44 ( 10.05, 149.43)
14 05/06/2022 02:39:14 ( 10.02, 159.95) 05/06/2022 02:42:49 ( 22.65, 156.95)
15 05/06/2022 15:11:06 ( 22.67, 157.19) 05/06/2022 15:14:41 ( 10.04, 154.18)
16 05/07/2022 02:20:11 ( 10.03, 164.71) 05/07/2022 02:23:46 ( 22.66, 161.71)
17 05/07/2022 14:52:04 ( 22.66, 161.95) 05/07/2022 14:55:39 ( 10.04, 158.94)
18 05/08/2022 03:42:39 ( 10.05, 144.09) 05/08/2022 03:46:14 ( 22.67, 141.09)
19 05/08/2022 14:34:18 ( 18.13, 165.60) 05/08/2022 14:36:36 ( 10.03, 163.70)
20 05/08/2022 16:14:30 ( 22.70, 141.34) 05/08/2022 16:16:39 ( 15.13, 139.51)
21 05/09/2022 03:23:35 ( 10.00, 148.87) 05/09/2022 03:27:11 ( 22.68, 145.85)
22 05/09/2022 15:55:28 ( 22.69, 146.10) 05/09/2022 15:59:04 ( 10.01, 143.08)
23 05/10/2022 03:04:33 ( 10.01, 153.62) 05/10/2022 03:08:09 ( 22.70, 150.61)
24 05/10/2022 15:36:25 ( 22.68, 150.86) 05/10/2022 15:40:00 ( 10.06, 147.86)
25 05/11/2022 02:45:30 ( 10.03, 158.38) 05/11/2022 02:49:05 ( 22.65, 155.38)
26 05/11/2022 15:17:23 ( 22.66, 155.62) 05/11/2022 15:20:58 ( 10.04, 152.62)
27 05/12/2022 02:26:28 ( 10.04, 163.14) 05/12/2022 02:30:03 ( 22.66, 160.14)
28 05/12/2022 14:58:20 ( 22.65, 160.38) 05/12/2022 15:01:55 ( 10.03, 157.37)
29 05/13/2022 02:10:12 ( 19.86, 165.59) 05/13/2022 02:11:00 ( 22.67, 164.90)
30 05/13/2022 03:48:54 ( 10.00, 142.54) 05/13/2022 03:52:30 ( 22.68, 139.52)
31 05/13/2022 14:39:17 ( 22.70, 165.15) 05/13/2022 14:42:53 ( 10.02, 162.13)
